This is the latest recevied weather packets stored in our database for station/object DG8SBT-10. If no packets are shown the sender has not sent any weather packets the latest 10 day(s).
| Time | Temp. | Humidity | Pressure | Rain* | Wind** | Luminosity | Snow |
|---|---|---|---|---|---|---|---|
| 1788260638 | 27.22° C | 36% | 1023.5 hPa | - | - | - | - |
| 1788259738 | 26.67° C | 38% | 1023.6 hPa | - | - | - | - |
| 1788258838 | 26.67° C | 38% | 1023.6 hPa | - | - | - | - |
| 1788257938 | 26.67° C | 38% | 1023.7 hPa | - | - | - | - |
| 1788257038 | 26.11° C | 40% | 1023.8 hPa | - | - | - | - |
| 1788256137 | 25.56° C | 40% | 1023.7 hPa | - | - | - | - |
| 1788255237 | 25.56° C | 42% | 1023.8 hPa | - | - | - | - |
| 1788254337 | 25.56° C | 42% | 1023.9 hPa | - | - | - | - |
| 1788253437 | 25° C | 44% | 1024.1 hPa | - | - | - | - |
| 1788252537 | 25° C | 45% | 1024.1 hPa | - | - | - | - |
| 1788251637 | 24.44° C | 45% | 1024 hPa | - | - | - | - |
| 1788250737 | 23.33° C | 47% | 1023.9 hPa | - | - | - | - |
| 1788249837 | 22.78° C | 49% | 1023.9 hPa | - | - | - | - |
| 1788248937 | 22.78° C | 50% | 1023.8 hPa | - | - | - | - |
| 1788248037 | 22.22° C | 50% | 1023.9 hPa | - | - | - | - |
| 1788247137 | 22.22° C | 51% | 1023.8 hPa | - | - | - | - |
| 1788246236 | 22.22° C | 50% | 1023.8 hPa | - | - | - | - |
| 1788245336 | 22.78° C | 49% | 1023.8 hPa | - | - | - | - |
| 1788244436 | 22.22° C | 49% | 1023.7 hPa | - | - | - | - |
| 1788243536 | 21.67° C | 51% | 1023.7 hPa | - | - | - | - |
| 1788242636 | 21.11° C | 53% | 1023.6 hPa | - | - | - | - |
| 1788241736 | 20.56° C | 54% | 1023.5 hPa | - | - | - | - |
| 1788240836 | 20° C | 55% | 1023.5 hPa | - | - | - | - |
| 1788239936 | 20.56° C | 55% | 1023.6 hPa | - | - | - | - |
| 1788239036 | 20.56° C | 55% | 1023.5 hPa | - | - | - | - |
* Rain since midnight (hover to see other rain measurements)
** Current wind speed in m/s (hover to see current wind gust speed)